Weather History for KRNT - March, 2013

Change the Weather History Date:

Saturday, March 16, 2013

  Actual Average Record
Temperature  
Mean Temperature 46 °F -  
Max Temperature 52 °F 52 °F - (-1)
Min Temperature 42 °F 39 °F - (-1)
Degree Days  
Heating Degree Days 18    
Moisture  
Dew Point 41 °F    
Average Humidity 79    
Maximum Humidity 90    
Minimum Humidity 65    
Precipitation  
Precipitation 0.10 in - - ()
Sea Level Pressure  
Sea Level Pressure 30.03 in    
Wind  
Wind Speed 8 mph (South)    
Max Wind Speed 16 mph    
Max Gust Speed 30 mph    
Visibility 9 miles    
Events Rain    
Averages and records for this station are not official NWS values.
T = Trace of Precipitation, MM = Missing Value Source: NWS Daily Summary

Daily Weather History Graph

Daily Weather History Graph

Search for Another Location

Airport or City:

Trip Planner

Search our weather history database for the weather conditions in past years. The results will help you decide how hot, cold, wet, or windy it might be!

Date:

Astronomy

Mar. 16, 2013 Rise Set
Actual Time 7:19 AM PDT 7:16 PM PDT
Civil Twilight 6:48 AM PDT 7:47 PM PDT
Nautical Twilight 6:12 AM PDT 8:22 PM PDT
Astronomical Twilight 5:36 AM PDT 8:59 PM PDT
Moon 9:31 AM PDT (3/16) No Moon Set
Length of Visible Light 12h 58m
Length of Day
11h 57m
Waxing Crescent, 24% of the Moon is Illuminated
Mar 16
Waxing Crescent
Mar 19
First Quarter
Mar 27
Full
Apr 2
Last Quarter
Apr 10
New

Hourly Weather History & Observations

Time (PDT) Temp. Windchill Dew Point Humidity Pressure Visibility Wind Dir Wind Speed Gust Speed Precip Events Conditions
12:20 AM 50.0 °F - 44.6 °F 82% 30.15 in 10.0 mi South 8.1 mph - N/A   Overcast
12:51 AM 50.0 °F - 44.6 °F 82% 30.14 in 10.0 mi SSE 5.8 mph - N/A   Overcast
12:53 AM 50.0 °F - 45.0 °F 83% 30.16 in 10.0 mi SSE 5.8 mph - N/A   Overcast
1:53 AM 50.0 °F - 45.0 °F 83% 30.14 in 10.0 mi South 6.9 mph - N/A   Overcast
2:53 AM 50.0 °F - 44.1 °F 80% 30.14 in 10.0 mi SSE 5.8 mph - N/A   Overcast
3:53 AM 48.9 °F - 44.1 °F 83% 30.12 in 10.0 mi South 9.2 mph - N/A   Overcast
4:51 AM 48.2 °F - 44.6 °F 87% 30.08 in 10.0 mi SSE 10.4 mph - N/A   Mostly Cloudy
4:53 AM 48.9 °F - 45.0 °F 86% 30.10 in 10.0 mi South 11.5 mph - N/A   Mostly Cloudy
5:17 AM 48.2 °F - 44.6 °F 87% 30.08 in 10.0 mi South 10.4 mph - N/A   Mostly Cloudy
5:53 AM 48.9 °F - 45.0 °F 86% 30.09 in 10.0 mi South 8.1 mph - N/A   Overcast
6:53 AM 48.9 °F - 44.1 °F 83% 30.07 in 10.0 mi South 9.2 mph - N/A   Overcast
7:53 AM 48.0 °F - 44.1 °F 86% 30.06 in 10.0 mi SSE 9.2 mph 17.3 mph N/A   Mostly Cloudy
8:02 AM 48.2 °F - 44.6 °F 87% 30.05 in 10.0 mi South 9.2 mph - N/A   Mostly Cloudy
8:53 AM 48.9 °F - 43.0 °F 80% 30.06 in 10.0 mi SSE 9.2 mph - N/A   Overcast
9:53 AM 48.9 °F - 43.0 °F 80% 30.06 in 10.0 mi South 9.2 mph 18.4 mph N/A   Overcast
10:53 AM 50.0 °F - 42.1 °F 74% 30.03 in 10.0 mi SSE 8.1 mph 17.3 mph 0.00 in   Overcast
11:53 AM 51.1 °F - 41.0 °F 68% 30.01 in 10.0 mi South 11.5 mph 19.6 mph N/A   Overcast
12:08 PM 51.8 °F - 42.8 °F 71% 29.99 in 10.0 mi South 10.4 mph 19.6 mph 0.01 in Rain Light Rain
12:39 PM 48.2 °F - 44.6 °F 87% 29.98 in 2.5 mi SW 9.2 mph 18.4 mph 0.04 in Rain Rain
12:53 PM 46.9 °F - 44.1 °F 90% 29.99 in 3.0 mi Variable 6.9 mph 17.3 mph 0.08 in Rain Light Rain
1:43 PM 50.0 °F - 44.6 °F 82% 29.94 in 3.0 mi SSE 8.1 mph 17.3 mph N/A   Haze
1:53 PM 50.0 °F - 45.0 °F 83% 29.96 in 10.0 mi South 11.5 mph 18.4 mph 0.01 in   Overcast
2:53 PM 50.0 °F - 42.1 °F 74% 29.94 in 10.0 mi SSE 12.7 mph 24.2 mph 0.00 in   Overcast
3:53 PM 46.0 °F 41.0 °F 39.9 °F 79% 29.95 in 4.0 mi SSW 10.4 mph 23.0 mph 0.01 in Rain Light Rain
4:53 PM 46.9 °F - 39.0 °F 74% 29.93 in 10.0 mi South 13.8 mph 24.2 mph 0.00 in   Overcast
5:53 PM 46.0 °F 39.3 °F 35.1 °F 66% 29.92 in 10.0 mi South 16.1 mph 29.9 mph N/A   Clear
6:53 PM 45.0 °F 40.1 °F 34.0 °F 65% 29.94 in 10.0 mi South 9.2 mph - N/A   Clear
7:53 PM 44.1 °F 41.5 °F 34.0 °F 68% 29.95 in 10.0 mi Variable 4.6 mph - N/A   Clear
8:30 PM 42.8 °F - 33.8 °F 70% 29.96 in 10.0 mi Calm Calm - N/A   Overcast
8:53 PM 43.0 °F 40.3 °F 35.1 °F 74% 29.98 in 10.0 mi South 4.6 mph 17.3 mph N/A   Overcast
9:53 PM 42.1 °F 37.7 °F 35.1 °F 76% 29.98 in 10.0 mi Variable 6.9 mph - N/A   Overcast
10:53 PM 42.1 °F 36.1 °F 35.1 °F 76% 29.98 in 10.0 mi South 10.4 mph - N/A   Mostly Cloudy
11:53 PM 42.1 °F 37.1 °F 35.1 °F 76% 30.01 in 10.0 mi South 8.1 mph 16.1 mph N/A   Overcast